Location: Newark
(44.6768°N, 22.5302°E)
Time: 01:06:57
(UTC+00:00)

ZACube-1 - Pass Details

Date: 28 June 2022
Orbit: 582 x 661 km, 97.6° (Epoch: 08 August)

Event Time Altitude Azimuth Distance (km) Brightness Sun altitude
Rises 01:17:50 0° 29° (NNE) 2,937 ? -12.3°
Reaches altitude 10° 01:20:45 10° 50° (NE) 2,038 ? -12.0°
Maximum altitude 01:23:39 17° 91° (E) 1,632 ? -11.7°
Drops below altitude 10° 01:26:34 10° 132° (SE) 2,054 ? -11.4°
Sets 01:29:31 0° 153° (SSE) 2,969 ? -11.0°
